2023/09/12 00:00:00,25.9,18.1
2023/09/12 00:10:00,25.8,18.0
2023/09/12 00:20:00,25.9,18.1
2023/09/12 00:30:00,25.9,18.1
2023/09/12 00:40:00,26.0,17.8
2023/09/12 00:50:00,25.9,18.0
2023/09/12 01:00:00,25.8,17.7
2023/09/12 01:10:00,25.8,17.7
2023/09/12 01:20:00,25.9,17.6
2023/09/12 01:30:00,25.9,17.6
2023/09/12 01:40:00,25.8,17.3
2023/09/12 01:50:00,25.8,17.5
2023/09/12 02:00:00,25.8,17.6
2023/09/12 02:10:00,25.7,17.3
2023/09/12 02:20:00,25.7,17.3
2023/09/12 02:30:00,25.6,17.3
2023/09/12 02:40:00,25.7,17.3
2023/09/12 02:50:00,25.7,17.4
2023/09/12 03:00:00,25.7,17.3
2023/09/12 03:10:00,25.7,17.4
2023/09/12 03:20:00,25.8,17.1
2023/09/12 03:30:00,25.9,16.9
2023/09/12 03:40:00,25.9,17.2
2023/09/12 03:50:00,26.0,17.2
2023/09/12 04:00:00,25.9,17.1
2023/09/12 04:10:00,25.8,16.9
2023/09/12 04:20:00,26.0,17.3
2023/09/12 04:30:00,25.9,17.2
2023/09/12 04:40:00,25.7,17.1
2023/09/12 04:50:00,25.7,17.0
2023/09/12 05:00:00,25.6,17.0
2023/09/12 05:10:00,25.6,17.1
2023/09/12 05:20:00,25.6,17.1
2023/09/12 05:30:00,25.6,17.0
2023/09/12 05:40:00,25.6,16.9
2023/09/12 05:50:00,25.6,16.9
2023/09/12 06:00:00,25.6,16.9
2023/09/12 06:10:00,25.5,16.8
2023/09/12 06:20:00,25.4,16.8
2023/09/12 06:30:00,25.6,17.1
2023/09/12 06:40:00,25.5,17.3
2023/09/12 06:50:00,25.8,17.4
2023/09/12 07:00:00,26.0,17.6
2023/09/12 07:10:00,25.9,18.0
2023/09/12 07:20:00,26.0,18.7
2023/09/12 07:30:00,25.9,19.2
2023/09/12 07:40:00,25.6,19.6
2023/09/12 07:50:00,26.0,19.7
2023/09/12 08:00:00,25.9,19.7
2023/09/12 08:10:00,25.8,19.8
2023/09/12 08:20:00,25.8,19.9
2023/09/12 08:30:00,25.9,20.0
2023/09/12 08:40:00,26.2,20.4
2023/09/12 08:50:00,26.2,21.2
2023/09/12 09:00:00,26.3,22.2
2023/09/12 09:10:00,26.5,22.7
2023/09/12 09:20:00,26.5,22.5
2023/09/12 09:30:00,26.5,23.3
2023/09/12 09:40:00,26.6,23.3
2023/09/12 09:50:00,26.6,23.2
2023/09/12 10:00:00,26.6,22.9
2023/09/12 10:10:00,26.8,23.3
2023/09/12 10:20:00,26.6,22.8
2023/09/12 10:30:00,26.6,24.2
2023/09/12 10:40:00,26.4,24.6
2023/09/12 10:50:00,26.4,24.6
2023/09/12 11:00:00,26.7,25.6
2023/09/12 11:10:00,26.7,24.5
2023/09/12 11:20:00,26.6,25.8
2023/09/12 11:30:00,---,27.0
2023/09/12 11:40:00,---,26.9
2023/09/12 11:50:00,62.1,26.7
2023/09/12 12:00:00,---,25.4
2023/09/12 12:10:00,---,27.3
2023/09/12 12:20:00,---,27.6
2023/09/12 12:30:00,60.4,26.4
2023/09/12 12:40:00,61.7,25.7
2023/09/12 12:50:00,62.7,26.2
2023/09/12 13:00:00,56.9,26.1
2023/09/12 13:10:00,56.8,26.6
2023/09/12 13:20:00,58.3,26.8
2023/09/12 13:30:00,58.8,26.6
2023/09/12 13:40:00,61.4,26.1
2023/09/12 13:50:00,62.1,25.6
2023/09/12 14:00:00,62.4,26.5
2023/09/12 14:10:00,57.7,27.5
2023/09/12 14:20:00,54.9,26.2
2023/09/12 14:30:00,55.7,25.5
2023/09/12 14:40:00,55.9,25.6
2023/09/12 14:50:00,57.2,25.8
2023/09/12 15:00:00,57.5,25.3
2023/09/12 15:10:00,59.4,25.0
2023/09/12 15:20:00,61.8,25.5
2023/09/12 15:30:00,62.6,24.3
2023/09/12 15:40:00,63.0,24.1
2023/09/12 15:50:00,63.4,24.7
2023/09/12 16:00:00,63.0,24.6
2023/09/12 16:10:00,61.4,24.8
2023/09/12 16:20:00,61.6,24.0
2023/09/12 16:30:00,64.2,23.7
2023/09/12 16:40:00,39.6,23.7
2023/09/12 16:50:00,---,23.6
2023/09/12 17:00:00,---,23.0
2023/09/12 17:10:00,45.9,23.3
2023/09/12 17:20:00, 0.0,23.4
2023/09/12 17:30:00,---,22.7
2023/09/12 17:40:00,103.8,22.2
2023/09/12 17:50:00,53.3,21.7
2023/09/12 18:00:00, 0.0,21.2
2023/09/12 18:10:00,26.1,20.9
2023/09/12 18:20:00,26.3,20.7
2023/09/12 18:30:00,26.5,20.4
2023/09/12 18:40:00,26.5,20.5
2023/09/12 18:50:00,26.6,20.1
2023/09/12 19:00:00,26.6,20.0
2023/09/12 19:10:00,26.4,19.8
2023/09/12 19:20:00,26.3,19.4
2023/09/12 19:30:00,26.4,19.5
2023/09/12 19:40:00,26.5,19.1
2023/09/12 19:50:00,26.6,19.4
2023/09/12 20:00:00,26.6,19.4
2023/09/12 20:10:00,26.6,19.2
2023/09/12 20:20:00,26.5,19.1
2023/09/12 20:30:00,26.6,19.1
2023/09/12 20:40:00,26.4,19.0
2023/09/12 20:50:00,26.5,19.0
2023/09/12 21:00:00,26.5,19.0
2023/09/12 21:10:00,26.5,19.0
2023/09/12 21:20:00,26.5,18.9
2023/09/12 21:30:00,26.3,18.9
2023/09/12 21:40:00,26.4,18.9
2023/09/12 21:50:00,26.4,18.9
2023/09/12 22:00:00,26.4,19.2
2023/09/12 22:10:00,26.5,18.5
2023/09/12 22:20:00,26.5,18.7
2023/09/12 22:30:00,26.5,18.6
2023/09/12 22:40:00,26.5,18.7
2023/09/12 22:50:00,26.3,18.5
2023/09/12 23:00:00,26.4,18.6
2023/09/12 23:10:00,26.4,18.7
2023/09/12 23:20:00,26.4,18.5
2023/09/12 23:30:00,26.5,18.4
2023/09/12 23:40:00,26.5,18.6
2023/09/12 23:50:00,26.5,18.6
